Location: Corte Bragagnani
(45.3000°N, 11.1000°E)
Time: 18:13:17
(UTC+00:00)

Cosmos 1570 Rocket - Pass Details

Date: 09 April 2020
Orbit: 764 x 787 km, 74.1° (Epoch: 04 June)

Event Time Altitude Azimuth Distance (km) Brightness Sun altitude
Rises 20:46:51 0° 337° (NNW) 3,290 8.4 -27.0°
Reaches altitude 10° 20:49:15 10° 336° (NNW) 2,355 7.4 -27.3°
Enters shadow 20:54:30 74° 264° (W) 817 4.1 -27.9°
